Overview Statistics Trail Chart Weather Telemetry Raw packets
 

This is the latest recevied weather packets stored in our database for station/object DL6MAA-11. If no packets are shown the sender has not sent any weather packets the latest 10 day(s).

<< 1 2 3 4 >>
Time Temp. Humidity Pressure Rain* Wind** Luminosity Snow
1788598015 15° C 83% 1020.5 hPa 1.52 mm - 32 W/m² -
1788597717 15° C 83% 1021.1 hPa 1.27 mm - 33 W/m² -
1788597426 15° C 83% 1021.1 hPa 1.27 mm - 53 W/m² -
1788597111 15° C 83% 1021.1 hPa 1.27 mm - 47 W/m² -
1788596817 14.44° C 82% 1021 hPa 1.27 mm - 40 W/m² -
1788596513 15° C 82% 1021 hPa 1.27 mm - 40 W/m² -
1788596211 15° C 81% 1021 hPa 1.02 mm - 53 W/m² -
1788595920 15.56° C 80% 1020.4 hPa 1.02 mm - 30 W/m² -
1788595626 15.56° C 79% 1020.4 hPa 0.76 mm - 25 W/m² -
1788595315 15.56° C 78% 1020.4 hPa 0.51 mm - 47 W/m² -
1788595026 15.56° C 76% 1020.2 hPa 0.51 mm - 32 W/m² -
1788594715 16.11° C 76% 1020.2 hPa 0.51 mm - 40 W/m² -
1788594420 16.11° C 75% 1020.2 hPa 0.51 mm - 58 W/m² -
1788594120 16.11° C 76% 1019.7 hPa 0.51 mm - 67 W/m² -
1788593828 16.11° C 76% 1019.7 hPa 0.51 mm - 63 W/m² -
1788593507 16.11° C 76% 1019.7 hPa 0.51 mm - 111 W/m² -
1788593208 16.11° C 78% 1019.8 hPa 0.51 mm - 118 W/m² -
1788592918 15.56° C 78% 1019.8 hPa 0.51 mm - 116 W/m² -
1788592626 15.56° C 78% 1019.8 hPa 0.51 mm - 83 W/m² -
1788592309 15.56° C 78% 1019.7 hPa 0.51 mm - 84 W/m² -
1788592010 15.56° C 78% 1019.7 hPa 0.51 mm - 74 W/m² -
1788591721 15.56° C 78% 1019.7 hPa 0.51 mm - 60 W/m² -
1788591427 15.56° C 77% 1019.7 hPa 0.51 mm - 32 W/m² -
1788591127 15.56° C 76% 1019.7 hPa 0.25 mm - 37 W/m² -
1788590817 15.56° C 76% 1019.7 hPa 0.25 mm - 28 W/m² -

* Rain since midnight (hover to see other rain measurements)
** Current wind speed in m/s (hover to see current wind gust speed)